SUOMI NPP

Last updated on Thu Nov 21 2024 00:02:19 GMT+0000 (Coordinated Universal Time)

1 37849U 11061A 24325.58835854 .00000238 00000+0 13341-3 0 9999 2 37849 98.7373 261.2993 0001663 114.0828 246.0522 14.19565836677067
UTC large
Height (km)
Speed (km/s)
/
Latitude / Longitude
Inclination (degrees)
Orbital Period (minutes)
Azimuth
Elevation
Range (km)
Doppler Factor

Next 0 passes for location: London (51.5072 / 0.1276)

Sorry there are no passes over London.